Volver al catálogo

QIANFAN-208

ActivoComunicacionesPO
NORAD 69807·PAYLOAD·🇨🇳 China

Lanzado Jul 4, 2026 desde Taiyuan Satellite Launch Center

Loading…

Próximos Pases (próximas 24 horas)

TLE

ActualizadoSource: Space-Track

Época: Sep 14, 2026, 19:01 UTC

1 69807U 26153H   26257.79272279 -.01794797  00000-0 -13339+1 0  9999
2 69807  88.9973 352.0882 0005550  95.1028 265.0784 13.99319652 10263

Sigue QIANFAN-208 en tiempo real con AllMySat

Download on the App Store